• Join FlightAware (Why Join?)
  • Login
  • US Flag 
12:58AM EDT


 

Airport Tracker/Info


-or-


 

Live Flight TrackerFlight Track Log ✈ N531QS ✈ 10-Jun-2013 ✈ KVNY - KSFO

Flight Track Log - Related Links

Times and Time Zones

All times are in EDT time to prevent confusion due to time zone crossing. See the N531QS flight status page for this flight to view local times or setup timezone preferences in your user account.

Time Position Orientation Groundspeed Altitude Reporting Facility
EDT Latitude Longitude Course Direction KTS MPH feet Rate Location/Type
04:24PM 34.1728 -118.4928 239° Southwest 173 199 3,100  Level Los Angeles Center
04:25PM 34.1408 -118.5564 239° Southwest 265 305 6,200 3,660 Climbing Los Angeles Center
04:26PM 34.2142 -118.6197 324° Northwest 290 334 10,700 3,660 Climbing Los Angeles Center
04:27PM 34.2956 -118.6506 343° North 304 350 13,800 2,400 Climbing Los Angeles Center
04:28PM 34.3936 -118.6908 341° North 376 433 15,700 1,740 Climbing Los Angeles Center
04:29PM 34.5019 -118.7344 342° North 410 472 17,500 1,740 Climbing Los Angeles Center
04:30PM 34.6133 -118.7800 341° North 420 483 19,300 1,740 Climbing Los Angeles Center
04:31PM 34.7222 -118.8281 340° North 419 482 21,100 1,920 Climbing Los Angeles Center
04:32PM 34.8547 -118.9022 335° Northwest 438 504 23,300 1,800 Climbing Los Angeles Center
04:33PM 34.9467 -118.9781 326° Northwest 442 509 24,900 1,260 Climbing Los Angeles Center
04:34PM 35.0522 -119.0664 326° Northwest 457 526 26,000 480 Climbing Los Angeles Center
04:35PM 35.1808 -119.1717 326° Northwest 464 534 26,000  Level Los Angeles Center
04:37PM 35.3456 -119.3075 326° Northwest 452 520 26,000  Level Oakland Center
04:37PM 35.3897 -119.3450 325° Northwest 451 519 26,000  Level Los Angeles Center
04:38PM 35.4875 -119.4406 322° Northwest 452 520 26,000  Level Los Angeles Center
04:39PM 35.5578 -119.5656 305° West 448 516 26,000  Level Los Angeles Center
04:40PM 35.5817 -119.6483 290° West 450 518 26,000  Level Oakland Center
04:41PM 35.6044 -119.7956 281° West 445 512 26,000  Level Oakland Center
04:42PM 35.6172 -119.8844 280° West 436 502 26,000  Level Los Angeles Center
04:42PM 35.6250 -119.9428 279° West 442 509 26,000  Level Oakland Center
04:43PM 35.6467 -120.0900 280° West 443 510 26,000  Level Oakland Center
04:44PM 35.6703 -120.2689 279° West 446 513 26,000  Level Oakland Center
04:45PM 35.7075 -120.4103 288° West 450 518 26,000  Level Oakland Center
04:46PM 35.7617 -120.5478 296° West 449 517 26,000  Level Oakland Center
04:47PM 35.8147 -120.6833 296° West 445 512 26,000  Level Oakland Center
04:48PM 35.8664 -120.8189 295° West 442 509 26,000  Level Oakland Center
04:49PM 35.9192 -120.9561 295° West 444 511 26,000  Level Oakland Center
04:50PM 35.9703 -121.0928 295° West 442 509 26,000  Level Oakland Center
04:51PM 36.0231 -121.2286 296° West 441 507 26,000  Level Oakland Center
04:52PM 36.1039 -121.3847 303° West 451 519 26,000 -180 Level Oakland Center
04:53PM 36.2031 -121.4778 323° Northwest 449 517 25,700 -1,140 Descending Oakland Center
04:54PM 36.3019 -121.5678 324° Northwest 440 506 23,700 -1,980 Descending Oakland Center
04:55PM 36.3961 -121.6508 325° Northwest 421 484 21,700 -1,860 Descending Oakland Center
04:56PM 36.4900 -121.7353 324° Northwest 416 479 20,000 -1,020 Descending Oakland Center
04:57PM 36.5667 -121.8000 326° Northwest 413 475 20,000  Level Northern Cal TRACON
04:58PM 36.6500 -121.8833 321° Northwest 412 474 20,000 -960 Level Northern Cal TRACON
04:59PM 36.7500 -121.9500 332° Northwest 408 470 18,100 -1,980 Descending Northern Cal TRACON
05:00PM 36.8500 -122.0000 338° Northwest 398 458 16,100 -2,040 Descending Northern Cal TRACON
05:01PM 36.9667 -122.0167 353° North 360 414 14,100 -1,920 Descending Northern Cal TRACON
05:02PM 37.0333 -122.0333 349° North 358 412 12,500 -1,860 Descending Northern Cal TRACON
05:03PM 37.1500 -122.0667 347° North 346 398 10,400 -1,680 Descending Northern Cal TRACON
05:03PM 37.1867 -122.0783 346° North 344 396 9,900 -1,140 Descending Oakland Center
05:04PM 37.2697 -122.1014 348° North 303 349 8,700 -1,440 Descending Oakland Center
05:06PM 37.3175 -122.1525 320° Northwest 241 277 7,000 -1,380 Descending Oakland Center
05:07PM 37.3636 -122.1939 324° Northwest 233 268 5,900 -780 Descending Oakland Center
05:08PM 37.4256 -122.1667 19° North 236 272 5,500 -540 Descending Oakland Center
05:09PM 37.4906 -122.1672 360° North 235 270 4,900 -1,020 Descending Oakland Center
05:10PM 37.5469 -122.2167 325° Northwest 217 250 3,500 -1,380 Descending Oakland Center
05:11PM 37.5744 -122.2767 300° West 205 236 2,200 -1,320 Descending Oakland Center
05:12PM 37.5983 -122.3303 299° West 191 220 900 -1,080 Descending Oakland Center
05:13PM 37.6136 -122.3700 296° West 172 198 100 -840 Descending Oakland Center
05:15PM 37.6167 -122.3667 322° Northwest  Level FlightAware Approximate